StationID,Date,MaxTemp,MinTemp,Precipitation,Snowfall,SnowDepth
"USR0000ASNI","2008-06-07",56.66,48.20,,,
"USR0000ASNI","2008-06-08",51.08,38.48,,,
"USR0000ASNI","2008-06-09",44.42,30.38,,,
"USR0000ASNI","2008-06-10",51.44,36.14,,,
"USR0000ASNI","2008-06-11",42.80,35.96,,,
"USR0000ASNI","2008-06-12",48.74,35.42,,,
"USR0000ASNI","2008-06-13",57.02,35.78,,,
"USR0000ASNI","2008-06-14",61.16,44.24,,,
"USR0000ASNI","2008-06-15",60.26,45.14,,,
"USR0000ASNI","2008-06-16",53.60,43.70,,,
"USR0000ASNI","2008-06-17",63.14,44.42,,,
"USR0000ASNI","2008-06-18",59.90,45.68,,,
"USR0000ASNI","2008-06-19",55.58,43.70,,,
"USR0000ASNI","2008-06-20",60.26,46.22,,,
"USR0000ASNI","2008-06-21",57.74,41.54,,,
"USR0000ASNI","2008-06-22",49.46,43.52,,,
"USR0000ASNI","2008-06-23",54.68,40.28,,,
"USR0000ASNI","2008-06-24",53.60,41.54,,,
"USR0000ASNI","2008-06-25",53.78,44.42,,,
"USR0000ASNI","2008-06-26",52.52,43.52,,,
"USR0000ASNI","2008-06-27",54.32,43.70,,,
"USR0000ASNI","2008-06-28",45.50,39.92,,,
"USR0000ASNI","2008-06-29",50.36,41.36,,,
"USR0000ASNI","2008-06-30",48.92,38.30,,,
"USR0000ASNI","2008-07-01",60.26,41.72,,,
"USR0000ASNI","2008-07-02",60.26,46.40,,,
"USR0000ASNI","2008-07-03",53.78,48.56,,,
"USR0000ASNI","2008-07-04",62.78,47.84,,,
"USR0000ASNI","2008-07-05",65.84,53.78,,,
"USR0000ASNI","2008-07-06",60.44,51.26,,,
"USR0000ASNI","2008-07-07",51.80,43.88,,,
"USR0000ASNI","2008-07-08",51.08,42.44,,,
"USR0000ASNI","2008-07-09",63.14,46.58,,,
"USR0000ASNI","2008-07-10",57.20,44.78,,,
"USR0000ASNI","2008-07-11",54.14,45.32,,,
"USR0000ASNI","2008-07-12",57.20,42.98,,,
"USR0000ASNI","2008-07-13",53.24,42.26,,,
"USR0000ASNI","2008-07-14",58.28,46.22,,,
"USR0000ASNI","2008-07-15",64.76,49.82,,,
"USR0000ASNI","2008-07-16",56.48,46.40,,,
"USR0000ASNI","2008-07-17",46.76,37.76,,,
"USR0000ASNI","2008-07-18",50.54,37.94,,,
"USR0000ASNI","2008-07-19",50.90,39.92,,,
"USR0000ASNI","2008-07-20",51.08,40.28,,,
"USR0000ASNI","2008-07-21",50.00,37.58,,,
"USR0000ASNI","2008-07-22",50.54,40.10,,,
"USR0000ASNI","2008-07-23",48.02,38.84,,,
"USR0000ASNI","2008-07-24",56.48,40.64,,,
"USR0000ASNI","2008-07-25",61.16,43.88,,,
"USR0000ASNI","2008-07-26",54.32,44.78,,,
"USR0000ASNI","2008-07-27",51.26,42.62,,,
"USR0000ASNI","2008-07-28",55.04,44.42,,,
"USR0000ASNI","2008-07-29",61.70,43.34,,,
"USR0000ASNI","2008-07-30",55.58,44.96,,,
"USR0000ASNI","2008-07-31",67.28,44.42,,,
"USR0000ASNI","2008-08-01",69.62,51.62,,,
"USR0000ASNI","2008-08-02",59.36,47.84,,,
"USR0000ASNI","2008-08-03",62.06,43.34,,,
"USR0000ASNI","2008-08-04",56.30,44.78,,,
"USR0000ASNI","2008-08-05",55.76,45.50,,,
"USR0000ASNI","2008-08-06",57.92,39.20,,,
"USR0000ASNI","2008-08-07",56.84,40.46,,,
"USR0000ASNI","2008-08-08",59.54,41.72,,,
"USR0000ASNI","2008-08-09",55.22,41.36,,,
"USR0000ASNI","2008-08-10",59.18,41.90,,,
"USR0000ASNI","2008-08-11",58.10,43.70,,,
"USR0000ASNI","2008-08-12",60.80,43.88,,,
"USR0000ASNI","2008-08-13",57.92,48.20,,,
"USR0000ASNI","2008-08-14",53.78,46.76,,,
"USR0000ASNI","2008-08-15",53.96,46.22,,,
"USR0000ASNI","2008-08-16",54.86,45.86,,,
"USR0000ASNI","2008-08-17",54.14,43.52,,,
"USR0000ASNI","2008-08-18",57.02,41.00,,,
"USR0000ASNI","2008-08-19",58.46,44.96,,,
"USR0000ASNI","2008-08-20",52.52,46.22,,,
"USR0000ASNI","2008-08-21",53.96,45.50,,,
"USR0000ASNI","2008-08-22",58.46,45.50,,,
"USR0000ASNI","2008-08-23",60.80,42.62,,,
"USR0000ASNI","2008-08-24",53.96,45.68,,,
"USR0000ASNI","2008-08-25",57.02,46.40,,,
"USR0000ASNI","2008-08-26",51.80,44.78,,,
"USR0000ASNI","2008-08-27",51.44,44.24,,,
"USR0000ASNI","2008-08-28",49.64,43.52,,,
"USR0000ASNI","2008-08-29",53.96,41.90,,,
"USR0000ASNI","2008-08-30",55.04,40.28,,,
"USR0000ASNI","2008-08-31",52.88,44.96,,,
"USR0000ASNI","2008-09-01",51.26,44.06,,,
"USR0000ASNI","2008-09-02",53.06,45.68,,,
"USR0000ASNI","2008-09-03",47.12,42.80,,,
"USR0000ASNI","2008-09-04",51.80,42.62,,,
"USR0000ASNI","2008-09-05",52.88,42.08,,,
"USR0000ASNI","2008-09-06",48.74,41.18,,,
"USR0000ASNI","2008-09-07",53.60,43.34,,,
"USR0000ASNI","2008-09-08",52.70,42.44,,,
"USR0000ASNI","2008-09-09",51.98,42.80,,,
"USR0000ASNI","2008-09-10",47.30,42.80,,,
"USR0000ASNI","2008-09-11",51.08,42.98,,,
"USR0000ASNI","2008-09-12",50.00,43.52,,,
"USR0000ASNI","2008-09-13",48.74,45.14,,,
"USR0000ASNI","2008-09-14",48.92,41.72,,,
"USR0000ASNI","2008-09-15",50.36,42.08,,,
"USR0000ASNI","2008-09-16",44.06,39.20,,,
"USR0000ASNI","2008-09-17",46.40,35.60,,,
"USR0000ASNI","2008-09-18",50.90,39.74,,,
"USR0000ASNI","2008-09-19",44.42,34.88,,,
"USR0000ASNI","2008-09-20",35.96,31.64,,,
"USR0000ASNI","2008-09-21",37.76,30.20,,,
"USR0000ASNI","2008-09-22",40.82,30.56,,,
"USR0000ASNI","2008-09-23",39.92,33.62,,,
"USR0000ASNI","2008-09-24",43.34,34.88,,,
"USR0000ASNI","2008-09-25",45.32,34.34,,,
"USR0000ASNI","2008-09-26",47.84,35.06,,,
"USR0000ASNI","2008-09-27",39.20,29.48,,,
"USR0000ASNI","2008-09-28",45.14,30.02,,,
"USR0000ASNI","2008-09-29",37.94,32.90,,,
"USR0000ASNI","2008-09-30",36.68,29.30,,,
"USR0000ASNI","2008-10-01",40.64,29.30,,,
"USR0000ASNI","2008-10-02",38.66,31.82,,,
"USR0000ASNI","2008-10-03",31.10,24.44,,,
"USR0000ASNI","2008-10-04",34.52,22.28,,,
"USR0000ASNI","2008-10-05",27.14,21.74,,,
"USR0000ASNI","2008-10-06",30.56,16.88,,,
"USR0000ASNI","2008-10-07",22.28,17.96,,,
"USR0000ASNI","2008-10-08",23.36,15.44,,,
"USR0000ASNI","2008-10-09",35.78,16.70,,,
"USR0000ASNI","2008-10-10",37.76,32.90,,,
"USR0000ASNI","2008-10-11",38.66,16.34,,,
"USR0000ASNI","2008-10-12",17.24,12.56,,,
"USR0000ASNI","2008-10-13",26.24,7.34,,,
"USR0000ASNI","2008-10-14",31.46,24.80,,,
"USR0000ASNI","2008-10-15",26.24,13.28,,,
"USR0000ASNI","2008-10-16",29.12,8.96,,,
"USR0000ASNI","2008-10-17",34.88,18.50,,,
"USR0000ASNI","2008-10-18",36.68,24.44,,,
"USR0000ASNI","2008-10-19",26.06,19.04,,,
"USR0000ASNI","2008-10-20",26.96,16.52,,,
"USR0000ASNI","2008-10-21",19.58,11.84,,,
"USR0000ASNI","2008-10-22",11.66,-0.22,,,
"USR0000ASNI","2008-10-23",6.80,-1.30,,,
"USR0000ASNI","2008-10-24",11.48,3.74,,,
"USR0000ASNI","2008-10-25",26.24,9.50,,,
"USR0000ASNI","2008-10-26",18.14,2.66,,,
"USR0000ASNI","2008-10-27",10.04,-1.48,,,
"USR0000ASNI","2008-10-28",27.86,5.54,,,
"USR0000ASNI","2008-10-29",28.58,16.70,,,
"USR0000ASNI","2008-10-30",32.00,23.54,,,
"USR0000ASNI","2008-10-31",36.68,19.76,,,
"USR0000ASNI","2008-11-01",25.88,19.04,,,
"USR0000ASNI","2008-11-02",18.86,-0.04,,,
"USR0000ASNI","2008-11-03",5.54,-0.94,,,
"USR0000ASNI","2008-11-04",3.02,-1.48,,,
"USR0000ASNI","2008-11-05",26.60,4.10,,,
"USR0000ASNI","2008-11-06",26.78,3.56,,,
"USR0000ASNI","2008-11-07",17.78,-0.04,,,
"USR0000ASNI","2008-11-08",24.62,13.10,,,
"USR0000ASNI","2008-11-09",30.92,25.52,,,
"USR0000ASNI","2008-11-10",33.26,28.22,,,
"USR0000ASNI","2008-11-11",27.68,22.28,,,
"USR0000ASNI","2008-11-12",22.28,17.24,,,
"USR0000ASNI","2008-11-13",26.06,18.32,,,
"USR0000ASNI","2008-11-14",24.26,20.12,,,
"USR0000ASNI","2008-11-15",27.14,17.96,,,
"USR0000ASNI","2008-11-16",28.22,16.16,,,
"USR0000ASNI","2008-11-17",17.96,7.16,,,
"USR0000ASNI","2008-11-18",6.44,-2.56,,,
"USR0000ASNI","2008-11-19",6.44,-2.20,,,
"USR0000ASNI","2008-11-20",-2.38,-18.40,,,
"USR0000ASNI","2008-11-21",1.22,-18.94,,,
"USR0000ASNI","2008-11-22",14.54,2.84,,,
"USR0000ASNI","2008-11-23",28.58,12.20,,,
"USR0000ASNI","2008-11-24",30.38,26.24,,,
"USR0000ASNI","2008-11-25",23.90,-0.04,,,
"USR0000ASNI","2008-11-26",0.50,-6.16,,,
"USR0000ASNI","2008-11-27",16.70,-7.24,,,
"USR0000ASNI","2008-11-28",12.02,4.10,,,
"USR0000ASNI","2008-11-29",3.92,-4.36,,,
"USR0000ASNI","2008-11-30",-4.36,-14.62,,,
"USR0000ASNI","2008-12-01",17.78,-12.28,,,
"USR0000ASNI","2008-12-02",33.08,18.50,,,
"USR0000ASNI","2008-12-03",33.62,29.12,,,
"USR0000ASNI","2008-12-04",36.14,33.26,,,
"USR0000ASNI","2008-12-05",38.66,32.72,,,
"USR0000ASNI","2008-12-06",37.58,27.50,,,
"USR0000ASNI","2008-12-07",26.96,15.44,,,
"USR0000ASNI","2008-12-08",33.98,23.72,,,
"USR0000ASNI","2008-12-09",26.24,15.98,,,
"USR0000ASNI","2008-12-10",22.64,8.96,,,
"USR0000ASNI","2008-12-11",11.12,5.72,,,
"USR0000ASNI","2008-12-12",16.70,1.94,,,
"USR0000ASNI","2008-12-13",23.00,9.86,,,
"USR0000ASNI","2008-12-14",36.86,22.82,,,
"USR0000ASNI","2008-12-15",30.38,21.20,,,
"USR0000ASNI","2008-12-16",31.28,14.72,,,
"USR0000ASNI","2008-12-17",32.72,29.66,,,
"USR0000ASNI","2008-12-18",34.34,29.84,,,
"USR0000ASNI","2008-12-19",33.98,28.22,,,
"USR0000ASNI","2008-12-20",28.94,21.56,,,
"USR0000ASNI","2008-12-21",22.82,18.86,,,
"USR0000ASNI","2008-12-22",24.26,20.48,,,
"USR0000ASNI","2008-12-23",25.70,13.64,,,
"USR0000ASNI","2008-12-24",16.88,9.32,,,
"USR0000ASNI","2008-12-25",21.02,8.06,,,
"USR0000ASNI","2008-12-26",6.62,-4.18,,,
"USR0000ASNI","2008-12-27",-4.90,-12.46,,,
"USR0000ASNI","2008-12-28",-13.36,-17.50,,,
"USR0000ASNI","2008-12-29",-13.90,-17.86,,,
"USR0000ASNI","2008-12-30",-16.60,-21.10,,,
"USR0000ASNI","2008-12-31",-13.18,-19.66,,,
"USR0000ASNI","2009-01-01",-7.60,-17.32,,,
"USR0000ASNI","2009-01-02",-18.04,-28.84,,,
"USR0000ASNI","2009-01-03",-24.70,-32.08,,,
"USR0000ASNI","2009-01-04",-17.86,-32.26,,,
"USR0000ASNI","2009-01-05",-17.86,-32.08,,,
"USR0000ASNI","2009-01-06",-11.02,-22.72,,,
"USR0000ASNI","2009-01-07",-12.82,-24.88,,,
"USR0000ASNI","2009-01-08",7.52,-13.18,,,
"USR0000ASNI","2009-01-09",10.58,3.92,,,
"USR0000ASNI","2009-01-10",14.18,5.36,,,
"USR0000ASNI","2009-01-11",27.14,14.00,,,
"USR0000ASNI","2009-01-12",26.06,17.96,,,
"USR0000ASNI","2009-01-13",36.68,19.22,,,
"USR0000ASNI","2009-01-14",41.18,31.10,,,
"USR0000ASNI","2009-01-15",40.64,31.10,,,
"USR0000ASNI","2009-01-16",42.62,32.00,,,
"USR0000ASNI","2009-01-17",36.14,21.92,,,
"USR0000ASNI","2009-01-18",31.10,19.76,,,
"USR0000ASNI","2009-01-19",27.32,15.44,,,
"USR0000ASNI","2009-01-20",25.70,8.60,,,
"USR0000ASNI","2009-01-21",37.40,24.62,,,
"USR0000ASNI","2009-01-22",34.16,28.58,,,
"USR0000ASNI","2009-01-23",30.20,27.68,,,
"USR0000ASNI","2009-01-24",30.74,27.86,,,
"USR0000ASNI","2009-01-25",29.66,19.94,,,
"USR0000ASNI","2009-01-26",21.74,14.18,,,
"USR0000ASNI","2009-01-27",14.90,6.44,,,
"USR0000ASNI","2009-01-28",15.08,3.74,,,
"USR0000ASNI","2009-01-29",14.36,-14.08,,,
"USR0000ASNI","2009-01-30",-14.80,-24.16,,,
"USR0000ASNI","2009-01-31",-10.84,-26.86,,,
"USR0000ASNI","2009-02-01",-10.12,-23.26,,,
"USR0000ASNI","2009-02-02",-19.30,-27.22,,,
"USR0000ASNI","2009-02-03",4.82,-27.58,,,
"USR0000ASNI","2009-02-04",21.38,5.00,,,
"USR0000ASNI","2009-02-05",23.90,20.30,,,
"USR0000ASNI","2009-02-06",23.00,18.14,,,
"USR0000ASNI","2009-02-07",19.22,10.94,,,
"USR0000ASNI","2009-02-08",9.86,-12.82,,,
"USR0000ASNI","2009-02-09",-0.94,-13.54,,,
"USR0000ASNI","2009-02-10",17.78,-15.70,,,
"USR0000ASNI","2009-02-11",20.48,14.54,,,
"USR0000ASNI","2009-02-12",28.04,11.66,,,
"USR0000ASNI","2009-02-13",30.02,27.86,,,
"USR0000ASNI","2009-02-14",28.58,22.28,,,
"USR0000ASNI","2009-02-15",32.72,27.32,,,
"USR0000ASNI","2009-02-16",30.92,15.08,,,
"USR0000ASNI","2009-02-17",14.36,-0.40,,,
"USR0000ASNI","2009-02-18",33.80,8.96,,,
"USR0000ASNI","2009-02-19",32.90,20.84,,,
"USR0000ASNI","2009-02-20",21.38,10.94,,,
"USR0000ASNI","2009-02-21",21.02,3.56,,,
"USR0000ASNI","2009-02-22",30.74,20.48,,,
"USR0000ASNI","2009-02-23",34.34,22.64,,,
"USR0000ASNI","2009-02-24",24.62,17.24,,,
"USR0000ASNI","2009-02-25",30.02,14.36,,,
"USR0000ASNI","2009-02-26",12.74,1.22,,,
"USR0000ASNI","2009-02-27",23.54,-3.28,,,
"USR0000ASNI","2009-02-28",24.62,8.06,,,
"USR0000ASNI","2009-03-01",7.70,-6.34,,,
"USR0000ASNI","2009-03-02",20.12,-6.34,,,
"USR0000ASNI","2009-03-03",23.54,12.74,,,
"USR0000ASNI","2009-03-04",38.66,13.64,,,
"USR0000ASNI","2009-03-05",41.00,16.34,,,
"USR0000ASNI","2009-03-06",15.62,9.50,,,
"USR0000ASNI","2009-03-07",23.18,6.26,,,
"USR0000ASNI","2009-03-08",30.92,18.32,,,
"USR0000ASNI","2009-03-09",30.02,25.34,,,
"USR0000ASNI","2009-03-10",32.00,28.04,,,
"USR0000ASNI","2009-03-11",31.28,26.06,,,
"USR0000ASNI","2009-03-12",25.88,15.08,,,
"USR0000ASNI","2009-03-13",15.80,5.90,,,
"USR0000ASNI","2009-03-14",5.18,-9.94,,,
"USR0000ASNI","2009-03-15",-4.72,-18.22,,,
"USR0000ASNI","2009-03-16",-15.88,-24.88,,,
"USR0000ASNI","2009-03-17",1.04,-18.58,,,
"USR0000ASNI","2009-03-18",-2.56,-10.30,,,
"USR0000ASNI","2009-03-19",-4.18,-15.16,,,
"USR0000ASNI","2009-03-20",-4.00,-12.28,,,
"USR0000ASNI","2009-03-21",-4.90,-14.44,,,
"USR0000ASNI","2009-03-22",15.80,-11.38,,,
"USR0000ASNI","2009-03-23",28.94,12.56,,,
"USR0000ASNI","2009-03-24",26.96,4.28,,,
"USR0000ASNI","2009-03-25",29.66,24.44,,,
"USR0000ASNI","2009-03-26",30.56,18.68,,,
"USR0000ASNI","2009-03-27",18.32,6.62,,,
"USR0000ASNI","2009-03-28",18.86,1.76,,,
"USR0000ASNI","2009-03-29",28.40,15.62,,,
"USR0000ASNI","2009-03-30",14.36,0.68,,,
"USR0000ASNI","2009-03-31",26.24,0.14,,,
"USR0000ASNI","2009-04-01",16.52,10.94,,,
"USR0000ASNI","2009-04-02",25.70,11.30,,,
"USR0000ASNI","2009-04-03",21.74,11.12,,,
"USR0000ASNI","2009-04-04",15.44,3.02,,,
"USR0000ASNI","2009-04-05",29.84,8.24,,,
"USR0000ASNI","2009-04-06",31.46,20.12,,,
"USR0000ASNI","2009-04-07",33.08,24.62,,,
"USR0000ASNI","2009-04-08",28.94,19.22,,,
"USR0000ASNI","2009-04-09",28.22,16.52,,,
"USR0000ASNI","2009-04-10",32.00,25.88,,,
"USR0000ASNI","2009-04-11",33.08,21.20,,,
"USR0000ASNI","2009-04-12",32.00,18.86,,,
"USR0000ASNI","2009-04-13",23.90,11.30,,,
"USR0000ASNI","2009-04-14",36.50,20.12,,,
"USR0000ASNI","2009-04-15",35.96,24.62,,,
"USR0000ASNI","2009-04-16",33.08,24.44,,,
"USR0000ASNI","2009-04-17",30.56,22.64,,,
"USR0000ASNI","2009-04-18",33.98,20.66,,,
"USR0000ASNI","2009-04-19",40.10,26.42,,,
"USR0000ASNI","2009-04-20",37.04,26.42,,,
"USR0000ASNI","2009-04-21",42.08,25.34,,,
"USR0000ASNI","2009-04-22",39.74,31.64,,,
"USR0000ASNI","2009-04-23",34.70,28.04,,,
"USR0000ASNI","2009-04-24",30.38,24.98,,,
"USR0000ASNI","2009-04-25",40.64,26.24,,,
"USR0000ASNI","2009-04-26",46.40,38.84,,,
"USR0000ASNI","2009-04-27",45.86,37.76,,,
"USR0000ASNI","2009-04-28",48.56,34.88,,,
"USR0000ASNI","2009-04-29",53.24,43.52,,,
"USR0000ASNI","2009-04-30",50.72,44.06,,,
"USR0000ASNI","2009-05-01",55.76,42.08,,,
"USR0000ASNI","2009-05-02",64.04,39.02,,,
"USR0000ASNI","2009-05-03",61.52,44.06,,,
"USR0000ASNI","2009-05-04",55.04,37.76,,,
"USR0000ASNI","2009-05-05",41.90,30.38,,,
"USR0000ASNI","2009-05-06",34.34,24.80,,,
"USR0000ASNI","2009-05-07",50.36,25.34,,,
"USR0000ASNI","2009-05-08",54.14,34.16,,,
"USR0000ASNI","2009-05-09",51.98,36.14,,,
"USR0000ASNI","2009-05-10",50.18,31.28,,,
"USR0000ASNI","2009-05-11",53.96,31.10,,,
"USR0000ASNI","2009-05-12",57.56,37.04,,,
"USR0000ASNI","2009-05-13",59.72,39.20,,,
"USR0000ASNI","2009-05-14",56.66,38.84,,,
"USR0000ASNI","2009-05-15",49.82,34.52,,,
"USR0000ASNI","2009-05-16",50.54,33.80,,,
"USR0000ASNI","2009-05-17",57.74,36.68,,,
"USR0000ASNI","2009-05-18",50.54,40.10,,,
"USR0000ASNI","2009-05-19",39.56,32.00,,,
"USR0000ASNI","2009-05-20",46.04,31.28,,,
"USR0000ASNI","2009-05-21",49.46,33.26,,,
"USR0000ASNI","2009-05-22",49.28,35.60,,,
"USR0000ASNI","2009-05-23",52.34,37.22,,,
"USR0000ASNI","2009-05-24",57.74,40.82,,,
"USR0000ASNI","2009-05-25",62.42,44.42,,,
"USR0000ASNI","2009-05-26",66.74,46.40,,,
"USR0000ASNI","2009-05-27",50.18,38.30,,,
"USR0000ASNI","2009-05-28",44.24,34.34,,,
"USR0000ASNI","2009-05-29",46.04,33.44,,,
"USR0000ASNI","2009-05-30",44.42,33.62,,,
"USR0000ASNI","2009-05-31",49.28,36.32,,,
"USR0000ASNI","2009-06-01",51.44,40.28,,,
"USR0000ASNI","2009-06-02",51.98,45.86,,,
"USR0000ASNI","2009-06-03",64.40,44.96,,,
"USR0000ASNI","2009-06-04",59.54,50.90,,,
"USR0000ASNI","2009-06-05",58.46,42.62,,,
"USR0000ASNI","2009-06-06",54.50,39.02,,,
"USR0000ASNI","2009-06-07",68.54,41.00,,,
"USR0000ASNI","2009-06-08",62.60,42.08,,,
"USR0000ASNI","2009-06-09",64.58,40.10,,,
"USR0000ASNI","2009-06-10",73.04,47.66,,,
"USR0000ASNI","2009-06-11",64.94,47.12,,,
"USR0000ASNI","2009-06-12",51.26,39.56,,,
"USR0000ASNI","2009-06-13",48.92,42.08,,,
"USR0000ASNI","2009-06-14",51.44,42.98,,,
"USR0000ASNI","2009-06-15",57.74,46.04,,,
"USR0000ASNI","2009-06-16",57.20,45.32,,,
"USR0000ASNI","2009-06-17",52.88,40.28,,,
"USR0000ASNI","2009-06-18",50.00,42.62,,,
"USR0000ASNI","2009-06-19",55.76,43.16,,,
"USR0000ASNI","2009-06-20",51.62,41.36,,,
"USR0000ASNI","2009-06-21",49.10,37.40,,,
"USR0000ASNI","2009-06-22",45.68,35.24,,,
"USR0000ASNI","2009-06-23",46.40,34.88,,,
"USR0000ASNI","2009-06-24",47.84,35.42,,,
"USR0000ASNI","2009-06-25",46.58,36.32,,,
"USR0000ASNI","2009-06-26",49.82,37.94,,,
"USR0000ASNI","2009-06-27",51.08,38.84,,,
"USR0000ASNI","2009-06-28",51.26,40.10,,,
"USR0000ASNI","2009-06-29",57.56,42.08,,,
"USR0000ASNI","2009-06-30",64.58,46.58,,,
"USR0000ASNI","2009-07-01",67.46,48.20,,,
"USR0000ASNI","2009-07-02",68.54,52.16,,,
"USR0000ASNI","2009-07-03",69.44,49.28,,,
"USR0000ASNI","2009-07-04",71.96,49.10,,,
"USR0000ASNI","2009-07-05",75.38,55.04,,,
"USR0000ASNI","2009-07-06",79.34,58.82,,,
"USR0000ASNI","2009-07-07",78.26,60.80,,,
"USR0000ASNI","2009-07-08",70.88,54.32,,,
"USR0000ASNI","2009-07-09",60.62,51.80,,,
"USR0000ASNI","2009-07-10",72.32,50.72,,,
"USR0000ASNI","2009-07-11",76.10,57.20,,,
"USR0000ASNI","2009-07-12",76.82,57.38,,,
"USR0000ASNI","2009-07-13",70.88,58.64,,,
"USR0000ASNI","2009-07-14",62.96,53.06,,,
"USR0000ASNI","2009-07-15",60.44,50.18,,,
"USR0000ASNI","2009-07-16",66.56,51.26,,,
"USR0000ASNI","2009-07-17",59.36,53.42,,,
"USR0000ASNI","2009-07-18",55.94,51.80,,,
"USR0000ASNI","2009-07-19",53.60,48.38,,,
"USR0000ASNI","2009-07-20",59.90,47.66,,,
"USR0000ASNI","2009-07-21",52.52,47.84,,,
"USR0000ASNI","2009-07-22",53.42,47.12,,,
"USR0000ASNI","2009-07-23",54.50,46.22,,,
"USR0000ASNI","2009-07-24",52.16,46.58,,,
"USR0000ASNI","2009-07-25",51.80,47.84,,,
"USR0000ASNI","2009-07-26",59.00,48.38,,,
"USR0000ASNI","2009-07-27",62.06,52.16,,,
"USR0000ASNI","2009-07-28",59.18,52.70,,,
"USR0000ASNI","2009-07-29",64.40,43.88,,,
"USR0000ASNI","2009-07-30",50.90,43.34,,,
"USR0000ASNI","2009-07-31",48.56,40.64,,,
"USR0000ASNI","2009-08-01",58.82,40.10,,,
"USR0000ASNI","2009-08-02",58.28,47.48,,,
"USR0000ASNI","2009-08-03",64.04,50.72,,,
"USR0000ASNI","2009-08-04",60.80,53.06,,,
"USR0000ASNI","2009-08-05",55.40,45.32,,,
"USR0000ASNI","2009-08-06",53.78,44.06,,,
"USR0000ASNI","2009-08-07",63.68,45.32,,,
"USR0000ASNI","2009-08-08",62.96,48.74,,,
"USR0000ASNI","2009-08-09",61.88,49.10,,,
"USR0000ASNI","2009-08-10",61.16,44.60,,,
"USR0000ASNI","2009-08-11",61.34,46.22,,,
"USR0000ASNI","2009-08-12",60.44,47.30,,,
"USR0000ASNI","2009-08-13",49.82,46.04,,,
"USR0000ASNI","2009-08-14",57.38,46.76,,,
"USR0000ASNI","2009-08-15",55.58,46.04,,,
"USR0000ASNI","2009-08-16",56.30,41.90,,,
"USR0000ASNI","2009-08-17",57.74,45.14,,,
"USR0000ASNI","2009-08-18",49.82,42.62,,,
"USR0000ASNI","2009-08-19",53.42,41.36,,,
"USR0000ASNI","2009-08-20",56.48,41.00,,,
"USR0000ASNI","2009-08-21",56.30,38.66,,,
"USR0000ASNI","2009-08-22",49.10,41.18,,,
"USR0000ASNI","2009-08-23",42.80,36.86,,,
"USR0000ASNI","2009-08-24",48.20,35.42,,,
"USR0000ASNI","2009-08-25",50.54,35.06,,,
"USR0000ASNI","2009-08-26",54.50,34.34,,,
"USR0000ASNI","2009-08-27",58.64,46.22,,,
"USR0000ASNI","2009-08-28",59.18,46.94,,,
"USR0000ASNI","2009-08-29",55.22,39.56,,,
"USR0000ASNI","2009-08-30",60.44,41.54,,,
"USR0000ASNI","2009-08-31",48.56,40.28,,,
"USR0000ASNI","2009-09-01",46.04,40.64,,,
"USR0000ASNI","2009-09-02",48.56,41.18,,,
"USR0000ASNI","2009-09-03",58.10,45.32,,,
"USR0000ASNI","2009-09-04",65.12,43.88,,,
"USR0000ASNI","2009-09-05",64.76,48.56,,,
"USR0000ASNI","2009-09-06",61.52,47.66,,,
"USR0000ASNI","2009-09-07",55.04,46.58,,,
"USR0000ASNI","2009-09-08",53.42,45.68,,,
"USR0000ASNI","2009-09-09",54.50,43.70,,,
"USR0000ASNI","2009-09-10",58.46,41.18,,,
"USR0000ASNI","2009-09-11",50.90,44.78,,,
"USR0000ASNI","2009-09-12",51.98,42.62,,,
"USR0000ASNI","2009-09-13",52.88,37.58,,,
"USR0000ASNI","2009-09-14",49.82,41.18,,,
"USR0000ASNI","2009-09-15",55.04,42.98,,,
"USR0000ASNI","2009-09-16",55.76,44.06,,,
"USR0000ASNI","2009-09-17",50.18,42.26,,,
"USR0000ASNI","2009-09-18",52.16,40.10,,,
"USR0000ASNI","2009-09-19",55.94,38.30,,,
"USR0000ASNI","2009-09-20",51.98,40.82,,,
"USR0000ASNI","2009-09-21",39.20,30.20,,,
"USR0000ASNI","2009-09-22",34.34,24.80,,,
"USR0000ASNI","2009-09-23",37.58,23.36,,,
"USR0000ASNI","2009-09-24",35.06,25.34,,,
"USR0000ASNI","2009-09-25",31.28,26.42,,,
"USR0000ASNI","2009-09-26",32.00,25.16,,,
"USR0000ASNI","2009-09-27",28.58,25.16,,,
"USR0000ASNI","2009-09-28",38.48,24.26,,,
"USR0000ASNI","2009-09-29",34.34,30.92,,,
"USR0000ASNI","2009-09-30",35.96,31.10,,,
"USR0000ASNI","2009-10-01",33.98,25.52,,,
"USR0000ASNI","2009-10-02",40.28,23.90,,,
"USR0000ASNI","2009-10-03",44.06,35.96,,,
"USR0000ASNI","2009-10-04",43.16,37.04,,,
"USR0000ASNI","2009-10-05",40.82,34.52,,,
"USR0000ASNI","2009-10-06",42.44,31.10,,,
"USR0000ASNI","2009-10-07",48.92,41.18,,,
"USR0000ASNI","2009-10-08",52.88,47.12,,,
"USR0000ASNI","2009-10-09",52.34,47.12,,,
"USR0000ASNI","2009-10-10",52.16,44.78,,,
"USR0000ASNI","2009-10-11",51.26,42.62,,,
"USR0000ASNI","2009-10-12",51.98,41.18,,,
"USR0000ASNI","2009-10-13",52.16,36.32,,,
"USR0000ASNI","2009-10-14",36.50,31.82,,,
"USR0000ASNI","2009-10-15",37.94,30.74,,,
"USR0000ASNI","2009-10-16",34.70,29.12,,,
"USR0000ASNI","2009-10-17",37.22,25.70,,,
"USR0000ASNI","2009-10-18",40.82,31.82,,,
"USR0000ASNI","2009-10-19",41.00,31.64,,,
"USR0000ASNI","2009-10-20",42.08,31.46,,,
"USR0000ASNI","2009-10-21",32.90,23.90,,,
"USR0000ASNI","2009-10-22",45.50,32.00,,,
"USR0000ASNI","2009-10-23",43.70,37.58,,,
"USR0000ASNI","2009-10-24",39.38,32.72,,,
"USR0000ASNI","2009-10-25",32.90,26.42,,,
"USR0000ASNI","2009-10-26",26.06,23.00,,,
"USR0000ASNI","2009-10-27",23.00,18.68,,,
"USR0000ASNI","2009-10-28",19.76,16.16,,,
"USR0000ASNI","2009-10-29",19.40,13.46,,,
"USR0000ASNI","2009-10-30",19.76,7.70,,,
"USR0000ASNI","2009-10-31",14.54,3.74,,,
"USR0000ASNI","2009-11-01",23.18,5.36,,,
"USR0000ASNI","2009-11-02",18.50,10.04,,,
"USR0000ASNI","2009-11-03",32.36,19.76,,,
"USR0000ASNI","2009-11-04",32.36,29.12,,,
"USR0000ASNI","2009-11-05",31.64,11.30,,,
"USR0000ASNI","2009-11-06",12.38,9.32,,,
"USR0000ASNI","2009-11-07",11.48,4.82,,,
"USR0000ASNI","2009-11-08",5.18,-3.28,,,
"USR0000ASNI","2009-11-09",22.82,-4.18,,,
"USR0000ASNI","2009-11-10",26.42,16.16,,,
"USR0000ASNI","2009-11-11",30.74,15.98,,,
"USR0000ASNI","2009-11-12",14.54,9.14,,,
"USR0000ASNI","2009-11-13",10.04,1.58,,,
"USR0000ASNI","2009-11-14",2.66,-1.66,,,
"USR0000ASNI","2009-11-15",0.86,-13.36,,,
"USR0000ASNI","2009-11-16",-12.82,-19.66,,,
"USR0000ASNI","2009-11-17",-17.14,-21.82,,,
"USR0000ASNI","2009-11-18",-17.50,-23.08,,,
"USR0000ASNI","2009-11-19",1.94,-18.40,,,
"USR0000ASNI","2009-11-20",8.78,1.76,,,
"USR0000ASNI","2009-11-21",18.32,5.18,,,
"USR0000ASNI","2009-11-22",29.48,21.38,,,
"USR0000ASNI","2009-11-23",30.38,24.08,,,
"USR0000ASNI","2009-11-24",24.80,21.92,,,
"USR0000ASNI","2009-11-25",21.74,12.38,,,
"USR0000ASNI","2009-11-26",28.40,15.26,,,
"USR0000ASNI","2009-11-27",27.32,16.52,,,
"USR0000ASNI","2009-11-28",18.32,3.74,,,
"USR0000ASNI","2009-11-29",3.20,-4.36,,,
"USR0000ASNI","2009-11-30",27.50,4.64,,,
"USR0000ASNI","2009-12-01",28.22,23.72,,,
"USR0000ASNI","2009-12-02",26.78,18.86,,,
"USR0000ASNI","2009-12-03",17.78,2.84,,,
"USR0000ASNI","2009-12-04",34.70,9.86,,,
"USR0000ASNI","2009-12-05",36.68,32.18,,,
"USR0000ASNI","2009-12-06",43.70,35.96,,,
"USR0000ASNI","2009-12-07",47.30,36.86,,,
"USR0000ASNI","2009-12-08",44.96,36.86,,,
"USR0000ASNI","2009-12-09",40.46,35.06,,,
"USR0000ASNI","2009-12-10",36.50,23.54,,,
"USR0000ASNI","2009-12-11",28.58,23.00,,,
"USR0000ASNI","2009-12-12",24.62,20.48,,,
"USR0000ASNI","2009-12-13",26.60,17.42,,,
"USR0000ASNI","2009-12-14",18.50,-3.64,,,